STARLINK-34640 (65092 NORAD) Tracking and Keplerian Element Data

This shows tracking and keplerian element data for the satellite.

Feedback or suggestion? Click here.




ElementValue
Catalog65092
NameSTARLINK-34640
Epoch Orbit2119
Epoch Day353.45934986
Epoch Year2025
RAAN39.5058
Inclination53.1599
Eccentricity0.0001509
Argument of Perigee64.9881
Mean Anonmoly295.1276
Mean Motion15.30192457
Decay Rate5.546E-05
L11 65092U 25167Q 25353.45934986 .00005546 00000+0 19927-3 0 9999
L22 65092 53.1599 39.5058 0001509 64.9881 295.1276 15.30192457 21199



Live tracking and technical data element details for STARLINK-34640 (NORAD 65092). STARLINK-34640 can be tracked NOW for your location showing map with azimuth and elevation plus other details from your city location.







IsCatalogInMostPopularTable: catalog: 65092, numindb: 20
Update: records affected: 1



GetName: 65092 STARLINK-34640

Hit Count: updated at: Thu, 21 May 2026 11:11:11 GMT